This demonstration page uses our WeatherBlox Daily Observations layout. Learn more.

Left ArrowRight Arrow

Hourly Observations for June 21, 2016

Temp ( °F °C ) Dew Point ( °F °C ) Humidity (%) Winds ( mph kmh ) Pressure ( in mb ) Visibility ( mi km ) Precip ( " mm )
12:52 am 00:52 Clear 75 23.9 67 19.4 76 76 SSW 6 9 30.12 1020 10 16 0.00 0.00
1:52 am 01:52 Partly Cloudy 75 23.9 67 19.4 76 76 SSW 3 6 30.10 1019 10 16 0.00 0.00
2:52 am 02:52 Clear 73 22.8 66 18.9 79 79 SSW 7 11 30.09 1019 10 16 0.00 0.00
3:52 am 03:52 Clear 72 22.2 66 18.9 82 82 SW 7 11 30.08 1019 10 16 0.00 0.00
4:52 am 04:52 Clear 73 22.8 67 19.4 81 81 WSW 6 9 30.08 1019 10 16 0.00 0.00
5:52 am 05:52 Clear 72 22.2 66 18.9 82 82 SW 6 9 30.07 1018 10 16 0.00 0.00
6:52 am 06:52 Sunny 73 22.8 67 19.4 81 81 SW 8 13 30.07 1018 10 16 0.00 0.00
7:52 am 07:52 Sunny 77 25 68 20 74 74 SW 5 7 30.09 1019 10 16 0.00 0.00
8:52 am 08:52 Sunny 80 26.7 67 19.4 64 64 WSW 5 7 30.11 1020 10 16 0.00 0.00
9:52 am 09:52 Sunny 83 28.3 67 19.4 59 59 W 6 9 30.10 1019 10 16 0.00 0.00
10:52 am 10:52 Sunny 86 30 67 19.4 53 53 W 5 7 30.11 1020 10 16 0.00 0.00
11:52 am 11:52 Sunny 87 30.6 66 18.9 50 50 VRB 5 7 30.11 1020 10 16 0.00 0.00
12:52 pm 12:52 Sunny 90 32.2 66 18.9 45 45 SW 5 7 30.08 1019 10 16 0.00 0.00
1:52 pm 13:52 Sunny 91 32.8 64 17.8 41 41 SW 13 20 30.05 1018 10 16 0.00 0.00
2:52 pm 14:52 Mostly Sunny 92 33.3 65 18.3 41 41 SSW 14 22 30.03 1017 10 16 0.00 0.00
3:52 pm 15:52 Sunny 93 33.9 65 18.3 40 40 SW 13 20 30.01 1016 10 16 0.00 0.00
4:52 pm 16:52 Sunny 92 33.3 65 18.3 41 41 S 12 19 29.99 1016 10 16 0.00 0.00
5:52 pm 17:52 Sunny 90 32.2 65 18.3 44 44 SSW 9 15 29.96 1015 10 16 0.00 0.00
6:52 pm 18:52 Sunny 89 31.7 64 17.8 43 43 SW 12 19 29.96 1014 10 16 0.00 0.00
7:52 pm 19:52 Sunny 87 30.6 65 18.3 48 48 SSW 9 15 29.95 1014 10 16 0.00 0.00
8:52 pm 20:52 Clear 81 27.2 66 18.9 61 61 S 7 11 29.95 1014 10 16 0.00 0.00
9:52 pm 21:52 Clear 79 26.1 66 18.9 65 65 S 8 13 29.95 1014 10 16 0.00 0.00
10:52 pm 22:52 Clear 77 25 66 18.9 69 69 S 9 15 29.95 1014 10 16 0.00 0.00
11:52 pm 23:52 Clear 77 25 65 18.3 66 66 S 9 15 29.94 1014 10 16 0.00 0.00

Powered by AerisWeather